Fort Knox, KY

10:12 AM EDT on March 24, 2017 (GMT -0400)
Godman Army Air Field

Weather History for KFTK - February, 2014

Change the Weather History Date:

Tuesday, February 11, 2014

  Actual Average Record
Temperature  
Mean Temperature 12 °F -  
Max Temperature 22 °F 45 °F 73 °F (1999)
Min Temperature 3 °F 27 °F 3 °F (2014)
Degree Days  
Heating Degree Days 52    
Moisture  
Dew Point 7 °F    
Average Humidity 75    
Maximum Humidity 81    
Minimum Humidity 66    
Precipitation  
Precipitation 0.00 in - - ()
Snow  
Snow 0.00 in - - ()
Snow Depth 1.00 in    
Sea Level Pressure  
Sea Level Pressure 30.44 in    
Wind  
Wind Speed 2 mph (NNE)    
Max Wind Speed 6 mph    
Max Gust Speed -    
Visibility 10 miles    
Events      
Averages and records for this station are not official NWS values.
T = Trace of Precipitation, MM = Missing Value Source: NWS Daily Summary

Daily Weather History Graph

Daily Weather History Graph

Search for Another Location

Airport or City:

Trip Planner

Search our weather history database for the weather conditions in past years. The results will help you decide how hot, cold, wet, or windy it might be!

Date:

Astronomy

Feb. 11, 2014 Rise Set
Actual Time 7:38 AM EST 6:18 PM EST
Civil Twilight 7:11 AM EST 6:45 PM EST
Nautical Twilight 6:40 AM EST 7:16 PM EST
Astronomical Twilight 6:09 AM EST 7:47 PM EST
Moon 3:39 PM EST (2/11) 5:13 AM EST (2/11)
Length of Visible Light 11h 34m
Length of Day
10h 40m
Waxing Gibbous, 90% of the Moon is Illuminated
Feb 11
Waxing Gibbous
Feb 14
Full
Feb 22
Last Quarter
Mar 1
New
Mar 8
First Quarter

Hourly Weather History & Observations

Time (EST) Temp. Windchill Dew Point Humidity Pressure Visibility Wind Dir Wind Speed Gust Speed Precip Events Conditions
12:58 AM 11.3 °F - 4.8 °F 75% 30.42 in 10.0 mi Calm Calm - N/A   Clear
1:58 AM 9.0 °F - 4.1 °F 81% 30.42 in 10.0 mi Calm Calm - N/A   Clear
2:58 AM 8.6 °F - 2.5 °F 76% 30.43 in 10.0 mi Calm Calm - N/A   Clear
3:58 AM 7.3 °F - 0.9 °F 75% 30.43 in 10.0 mi Calm Calm - N/A   Clear
4:58 AM 4.1 °F - -1.1 °F 79% 30.44 in 10.0 mi Calm Calm - N/A   Clear
5:58 AM 4.3 °F - -1.3 °F 78% 30.43 in 10.0 mi Calm Calm - N/A   Clear
6:58 AM 3.6 °F -3.8 °F -1.5 °F 80% 30.46 in 10.0 mi NNE 3.5 mph - N/A   Clear
7:58 AM 4.1 °F -5.1 °F -0.9 °F 80% 30.49 in 10.0 mi NNE 4.6 mph - N/A   Mostly Cloudy
8:58 AM 6.8 °F -3.5 °F 1.6 °F 79% 30.50 in 10.0 mi NNE 5.8 mph - N/A   Scattered Clouds
9:58 AM 8.8 °F -1.1 °F 3.4 °F 79% 30.50 in 10.0 mi NNE 5.8 mph - N/A   Partly Cloudy
10:58 AM 12.9 °F 3.8 °F 6.6 °F 76% 30.50 in 10.0 mi Variable 5.8 mph - N/A   Partly Cloudy
11:58 AM 16.0 °F 7.4 °F 10.0 °F 77% 30.48 in 10.0 mi North 5.8 mph - N/A   Partly Cloudy
12:58 PM 18.9 °F 13.7 °F 12.0 °F 75% 30.46 in 10.0 mi North 3.5 mph - N/A   Partly Cloudy
1:58 PM 20.7 °F 15.8 °F 13.1 °F 73% 30.44 in 10.0 mi Variable 3.5 mph - N/A   Partly Cloudy
2:58 PM 22.1 °F 17.4 °F 12.9 °F 68% 30.43 in 10.0 mi Variable 3.5 mph - N/A   Clear
3:58 PM 21.7 °F 17.0 °F 12.0 °F 66% 30.42 in 10.0 mi Variable 3.5 mph - N/A   Clear
4:58 PM 22.1 °F 17.4 °F 12.4 °F 66% 30.42 in 10.0 mi Variable 3.5 mph - N/A   Clear
5:58 PM 21.2 °F 16.4 °F 12.6 °F 69% 30.43 in 10.0 mi Variable 3.5 mph - N/A   Clear
6:58 PM 19.0 °F 13.9 °F 11.3 °F 72% 30.42 in 10.0 mi Variable 3.5 mph - N/A   Clear
7:58 PM 17.8 °F 12.5 °F 10.9 °F 75% 30.41 in 10.0 mi Variable 3.5 mph - N/A   Clear
8:58 PM 16.9 °F 11.5 °F 10.6 °F 76% 30.40 in 10.0 mi Variable 3.5 mph - N/A   Clear
9:58 PM 16.3 °F 10.8 °F 10.8 °F 79% 30.42 in 10.0 mi Variable 3.5 mph - N/A   Clear
10:58 PM 15.6 °F - 10.4 °F 80% 30.37 in 10.0 mi Calm Calm - N/A   Clear
11:58 PM 16.3 °F - 10.0 °F 76% 30.37 in 10.0 mi Calm Calm - N/A   Clear